Time,TemperatureF,DewpointF,PressureIn,WindDirection,WindDirectionDegrees,WindSpeedMPH,WindSpeedGustMPH,Humidity,HourlyPrecipIn,Conditions,Clouds,dailyrainin,SolarRadiationWatts/m^2,SoftwareType,DateUTC
2013-10-01 00:02:00,60.4,30.4,29.98,NNW,331,0.0,1.0,32,0.00,,,0.00,0.0,meteohub,2013-10-01 07:02:00,
2013-10-01 00:07:00,60.6,29.8,29.98,NNW,331,0.0,1.0,31,0.00,,,0.00,0.0,meteohub,2013-10-01 07:07:00,
2013-10-01 00:12:00,60.6,29.8,29.98,NNW,331,0.0,1.0,31,0.00,,,0.00,0.0,meteohub,2013-10-01 07:12:00,
2013-10-01 00:17:00,60.6,30.6,29.98,NNW,331,0.0,1.0,32,0.00,,,0.00,0.0,meteohub,2013-10-01 07:17:00,
2013-10-01 00:22:00,60.4,30.4,29.98,NNW,331,0.0,1.0,32,0.00,,,0.00,0.0,meteohub,2013-10-01 07:22:00,
2013-10-01 00:27:00,60.4,30.4,29.98,NNW,331,0.0,1.0,32,0.00,,,0.00,0.0,meteohub,2013-10-01 07:27:00,
2013-10-01 00:32:00,60.3,31.1,29.98,NNW,331,1.0,0.0,33,0.00,,,0.00,0.0,meteohub,2013-10-01 07:32:00,
2013-10-01 00:37:00,60.1,30.2,29.98,NNW,331,1.0,2.0,32,0.00,,,0.00,0.0,meteohub,2013-10-01 07:37:00,
2013-10-01 00:42:00,59.7,30.6,29.99,NNW,331,0.0,2.0,33,0.00,,,0.00,0.0,meteohub,2013-10-01 07:42:00,
2013-10-01 00:47:00,59.4,30.9,29.99,NNW,331,1.0,2.0,34,0.00,,,0.00,0.0,meteohub,2013-10-01 07:47:00,
2013-10-01 00:52:00,59.4,30.9,29.99,NNW,331,0.0,2.0,34,0.00,,,0.00,0.0,meteohub,2013-10-01 07:52:00,
2013-10-01 00:57:00,59.2,30.7,29.99,NNW,331,0.0,1.0,34,0.00,,,0.00,0.0,meteohub,2013-10-01 07:57:00,
2013-10-01 01:02:00,59.0,30.7,29.99,NNW,331,0.0,1.0,34,0.00,,,0.00,0.0,meteohub,2013-10-01 08:02:00,
2013-10-01 01:07:00,58.6,31.1,29.99,NNW,331,0.0,1.0,35,0.00,,,0.00,0.0,meteohub,2013-10-01 08:07:00,
2013-10-01 01:13:00,58.1,30.6,29.99,NNW,331,0.0,2.0,35,0.00,,,0.00,0.0,meteohub,2013-10-01 08:13:00,
2013-10-01 01:18:00,57.7,30.9,29.99,NNW,331,0.0,2.0,36,0.00,,,0.00,0.0,meteohub,2013-10-01 08:18:00,
2013-10-01 01:23:00,57.6,30.7,29.99,NNW,331,0.0,1.0,36,0.00,,,0.00,0.0,meteohub,2013-10-01 08:23:00,
2013-10-01 01:28:00,57.6,30.7,29.99,NNW,331,1.0,1.0,36,0.00,,,0.00,0.0,meteohub,2013-10-01 08:28:00,
2013-10-01 01:33:00,57.2,31.1,29.99,NNW,331,1.0,2.0,37,0.00,,,0.00,0.0,meteohub,2013-10-01 08:33:00,
2013-10-01 01:38:00,56.8,30.9,29.99,NNW,331,0.0,2.0,37,0.00,,,0.00,0.0,meteohub,2013-10-01 08:38:00,
2013-10-01 01:43:00,56.7,31.3,29.99,NNW,331,0.0,2.0,38,0.00,,,0.00,0.0,meteohub,2013-10-01 08:43:00,
2013-10-01 01:48:00,56.7,32.0,29.99,NNW,331,0.0,1.0,39,0.00,,,0.00,0.0,meteohub,2013-10-01 08:48:00,
2013-10-01 01:53:00,56.8,31.5,29.99,NNW,331,0.0,1.0,38,0.00,,,0.00,0.0,meteohub,2013-10-01 08:53:00,
2013-10-01 01:59:00,56.8,31.5,29.99,NNW,331,0.0,1.0,38,0.00,,,0.00,0.0,meteohub,2013-10-01 08:59:00,
2013-10-01 02:03:00,56.8,32.2,29.98,NNW,331,0.0,1.0,39,0.00,,,0.00,0.0,meteohub,2013-10-01 09:03:00,
2013-10-01 02:09:00,56.7,31.3,29.98,NNW,331,0.0,1.0,38,0.00,,,0.00,0.0,meteohub,2013-10-01 09:09:00,
2013-10-01 02:14:00,56.7,31.3,29.98,NNW,331,0.0,2.0,38,0.00,,,0.00,0.0,meteohub,2013-10-01 09:14:00,
2013-10-01 02:19:00,56.5,31.8,29.98,NNW,331,0.0,2.0,39,0.00,,,0.00,0.0,meteohub,2013-10-01 09:19:00,
2013-10-01 02:24:00,56.3,31.6,29.97,NNW,331,0.0,2.0,39,0.00,,,0.00,0.0,meteohub,2013-10-01 09:24:00,
2013-10-01 02:29:00,56.1,32.2,29.98,NNW,331,0.0,1.0,40,0.00,,,0.00,0.0,meteohub,2013-10-01 09:29:00,
2013-10-01 02:34:00,55.9,32.5,29.97,NNW,331,0.0,1.0,41,0.00,,,0.00,0.0,meteohub,2013-10-01 09:34:00,
2013-10-01 02:39:00,55.8,32.4,29.97,NNW,331,0.0,1.0,41,0.00,,,0.00,0.0,meteohub,2013-10-01 09:39:00,
2013-10-01 02:44:00,55.8,32.4,29.97,NNW,331,1.0,1.0,41,0.00,,,0.00,0.0,meteohub,2013-10-01 09:44:00,
2013-10-01 02:49:00,55.6,32.9,29.97,NNW,331,0.0,1.0,42,0.00,,,0.00,0.0,meteohub,2013-10-01 09:49:00,
2013-10-01 02:54:00,55.6,32.2,29.97,NNW,331,0.0,1.0,41,0.00,,,0.00,0.0,meteohub,2013-10-01 09:54:00,
2013-10-01 02:59:00,55.6,32.2,29.97,NNW,331,0.0,1.0,41,0.00,,,0.00,0.0,meteohub,2013-10-01 09:59:00,
2013-10-01 03:04:00,55.6,32.2,29.98,NNW,331,0.0,1.0,41,0.00,,,0.00,0.0,meteohub,2013-10-01 10:04:00,
2013-10-01 03:09:00,55.4,32.0,29.98,NNW,331,0.0,1.0,41,0.00,,,0.00,0.0,meteohub,2013-10-01 10:09:00,
2013-10-01 03:15:00,55.6,32.2,29.98,NNW,331,0.0,1.0,41,0.00,,,0.00,0.0,meteohub,2013-10-01 10:15:00,
2013-10-01 03:20:00,55.6,32.2,29.98,NNW,331,0.0,1.0,41,0.00,,,0.00,0.0,meteohub,2013-10-01 10:20:00,
2013-10-01 03:25:00,55.6,32.9,29.98,NNW,331,0.0,0.0,42,0.00,,,0.00,0.0,meteohub,2013-10-01 10:25:00,
2013-10-01 03:30:00,55.0,32.4,29.98,NNW,331,1.0,1.0,42,0.00,,,0.00,0.0,meteohub,2013-10-01 10:30:00,
2013-10-01 03:35:00,54.5,31.8,29.98,NNW,331,0.0,2.0,42,0.00,,,0.00,0.0,meteohub,2013-10-01 10:35:00,
2013-10-01 03:40:00,54.1,32.2,29.99,NNW,331,0.0,2.0,43,0.00,,,0.00,0.0,meteohub,2013-10-01 10:40:00,
2013-10-01 03:45:00,54.0,32.5,29.99,NNW,331,0.0,1.0,44,0.00,,,0.00,0.0,meteohub,2013-10-01 10:45:00,
2013-10-01 03:50:00,54.0,32.5,29.98,NNW,331,1.0,1.0,44,0.00,,,0.00,0.0,meteohub,2013-10-01 10:50:00,
2013-10-01 03:55:00,53.8,32.4,29.99,NNW,331,1.0,1.0,44,0.00,,,0.00,0.0,meteohub,2013-10-01 10:55:00,
2013-10-01 04:00:00,53.8,32.9,29.99,NNW,331,0.0,1.0,45,0.00,,,0.00,0.0,meteohub,2013-10-01 11:00:00,
2013-10-01 04:05:00,53.8,32.4,29.99,NNW,331,0.0,1.0,44,0.00,,,0.00,0.0,meteohub,2013-10-01 11:05:00,
2013-10-01 04:11:00,54.0,33.1,29.99,NNW,331,0.0,1.0,45,0.00,,,0.00,0.0,meteohub,2013-10-01 11:11:00,
2013-10-01 04:16:00,54.0,33.1,29.99,NNW,331,1.0,1.0,45,0.00,,,0.00,0.0,meteohub,2013-10-01 11:16:00,
2013-10-01 04:21:00,54.0,33.1,29.99,NNW,331,0.0,1.0,45,0.00,,,0.00,0.0,meteohub,2013-10-01 11:21:00,
2013-10-01 04:26:00,54.0,33.1,29.99,NNW,331,0.0,1.0,45,0.00,,,0.00,0.0,meteohub,2013-10-01 11:26:00,
2013-10-01 04:31:00,54.1,32.7,29.99,NNW,331,0.0,1.0,44,0.00,,,0.00,0.0,meteohub,2013-10-01 11:31:00,
2013-10-01 04:36:00,54.1,33.3,29.99,NNW,331,0.0,1.0,45,0.00,,,0.00,0.0,meteohub,2013-10-01 11:36:00,
2013-10-01 04:41:00,54.1,32.7,29.99,NNW,331,0.0,2.0,44,0.00,,,0.00,0.0,meteohub,2013-10-01 11:41:00,
2013-10-01 04:46:00,54.3,32.9,30.00,NNW,331,0.0,2.0,44,0.00,,,0.00,0.0,meteohub,2013-10-01 11:46:00,
2013-10-01 04:51:00,54.1,32.2,30.00,NNW,331,0.0,2.0,43,0.00,,,0.00,0.0,meteohub,2013-10-01 11:51:00,
2013-10-01 04:56:00,54.3,33.4,30.00,NNW,331,1.0,1.0,45,0.00,,,0.00,0.0,meteohub,2013-10-01 11:56:00,
2013-10-01 05:01:00,54.1,33.3,30.00,NNW,331,1.0,1.0,45,0.00,,,0.00,0.0,meteohub,2013-10-01 12:01:00,
2013-10-01 05:06:00,54.0,33.1,30.01,NNW,331,0.0,2.0,45,0.00,,,0.00,0.0,meteohub,2013-10-01 12:06:00,
2013-10-01 05:12:00,53.4,33.1,30.01,NNW,331,0.0,2.0,46,0.00,,,0.00,0.0,meteohub,2013-10-01 12:12:00,
2013-10-01 05:17:00,53.1,33.4,30.01,NNW,331,0.0,2.0,47,0.00,,,0.00,0.0,meteohub,2013-10-01 12:17:00,
2013-10-01 05:22:00,52.7,33.1,30.01,NNW,331,0.0,1.0,47,0.00,,,0.00,0.0,meteohub,2013-10-01 12:22:00,
2013-10-01 05:27:00,52.5,32.9,30.01,NNW,331,0.0,1.0,47,0.00,,,0.00,0.0,meteohub,2013-10-01 12:27:00,
2013-10-01 05:32:00,52.3,32.7,30.01,NNW,331,0.0,1.0,47,0.00,,,0.00,0.0,meteohub,2013-10-01 12:32:00,
2013-10-01 05:37:00,52.2,33.6,30.02,NNW,331,0.0,1.0,49,0.00,,,0.00,0.0,meteohub,2013-10-01 12:37:00,
2013-10-01 05:42:00,52.0,33.4,30.02,NNW,331,0.0,1.0,49,0.00,,,0.00,0.0,meteohub,2013-10-01 12:42:00,
2013-10-01 05:47:00,52.0,32.9,30.02,NNW,331,1.0,1.0,48,0.00,,,0.00,0.0,meteohub,2013-10-01 12:47:00,
2013-10-01 05:52:00,51.8,33.3,30.02,NNW,331,0.0,1.0,49,0.00,,,0.00,0.0,meteohub,2013-10-01 12:52:00,
2013-10-01 05:58:00,51.6,33.1,30.02,NNW,331,0.0,1.0,49,0.00,,,0.00,0.0,meteohub,2013-10-01 12:58:00,
2013-10-01 06:03:00,51.3,32.7,30.02,NNW,331,0.0,1.0,49,0.00,,,0.00,0.0,meteohub,2013-10-01 13:03:00,
2013-10-01 06:08:00,51.1,33.1,30.02,NNW,331,0.0,1.0,50,0.00,,,0.00,0.0,meteohub,2013-10-01 13:08:00,
2013-10-01 06:13:00,50.7,33.3,30.02,NNW,331,0.0,1.0,51,0.00,,,0.00,0.0,meteohub,2013-10-01 13:13:00,
2013-10-01 06:18:00,50.7,33.3,30.02,NNW,331,0.0,1.0,51,0.00,,,0.00,5.0,meteohub,2013-10-01 13:18:00,
2013-10-01 06:23:00,50.5,33.1,30.02,NNW,331,0.0,1.0,51,0.00,,,0.00,9.0,meteohub,2013-10-01 13:23:00,
2013-10-01 06:28:00,50.5,33.6,30.02,NNW,331,0.0,1.0,52,0.00,,,0.00,11.0,meteohub,2013-10-01 13:28:00,
2013-10-01 06:33:00,50.5,33.1,30.02,NNW,331,0.0,1.0,51,0.00,,,0.00,14.0,meteohub,2013-10-01 13:33:00,
2013-10-01 06:38:00,50.7,33.3,30.02,NNW,331,0.0,1.0,51,0.00,,,0.00,16.0,meteohub,2013-10-01 13:38:00,
2013-10-01 06:44:00,51.3,33.8,30.02,NNW,331,1.0,1.0,51,0.00,,,0.00,32.0,meteohub,2013-10-01 13:44:00,
2013-10-01 06:49:00,52.0,34.3,30.02,NNW,331,0.0,1.0,51,0.00,,,0.00,46.0,meteohub,2013-10-01 13:49:00,
2013-10-01 06:54:00,52.9,35.8,30.02,NNW,331,0.0,1.0,52,0.00,,,0.00,62.0,meteohub,2013-10-01 13:54:00,
2013-10-01 06:59:00,54.0,36.3,30.03,NNW,331,0.0,1.0,51,0.00,,,0.00,81.0,meteohub,2013-10-01 13:59:00,
2013-10-01 07:05:00,55.2,35.4,30.03,NNW,331,0.0,1.0,47,0.00,,,0.00,100.0,meteohub,2013-10-01 14:05:00,
2013-10-01 07:10:00,56.8,35.2,30.03,NNW,331,0.0,0.0,44,0.00,,,0.00,123.0,meteohub,2013-10-01 14:10:00,
2013-10-01 07:15:00,58.5,36.0,30.03,NNW,331,0.0,0.0,43,0.00,,,0.00,146.0,meteohub,2013-10-01 14:15:00,
2013-10-01 07:20:00,60.6,37.9,30.03,NNW,331,0.0,0.0,43,0.00,,,0.00,172.0,meteohub,2013-10-01 14:20:00,
2013-10-01 07:25:00,62.4,37.8,30.03,NNW,331,0.0,0.0,40,0.00,,,0.00,195.0,meteohub,2013-10-01 14:25:00,
2013-10-01 07:30:00,64.0,38.7,30.04,NNW,331,0.0,2.0,39,0.00,,,0.00,211.0,meteohub,2013-10-01 14:30:00,
2013-10-01 07:35:00,65.5,39.2,30.04,NNW,331,0.0,2.0,38,0.00,,,0.00,230.0,meteohub,2013-10-01 14:35:00,
2013-10-01 07:41:00,66.7,39.6,30.04,NNW,331,0.0,2.0,37,0.00,,,0.00,248.0,meteohub,2013-10-01 14:41:00,
2013-10-01 07:46:00,68.2,39.6,30.04,NNW,331,0.0,1.0,35,0.00,,,0.00,267.0,meteohub,2013-10-01 14:46:00,
2013-10-01 07:51:00,69.6,39.2,30.04,NNW,331,0.0,1.0,33,0.00,,,0.00,287.0,meteohub,2013-10-01 14:51:00,
2013-10-01 07:56:00,71.1,38.8,30.04,NNW,331,1.0,1.0,31,0.00,,,0.00,304.0,meteohub,2013-10-01 14:56:00,
2013-10-01 08:01:00,72.1,38.1,30.04,NNW,331,1.0,1.0,29,0.00,,,0.00,322.0,meteohub,2013-10-01 15:01:00,
2013-10-01 08:06:00,73.2,39.0,30.04,NNW,331,0.0,1.0,29,0.00,,,0.00,339.0,meteohub,2013-10-01 15:06:00,
2013-10-01 08:11:00,73.8,36.7,30.04,NNW,331,0.0,1.0,26,0.00,,,0.00,355.0,meteohub,2013-10-01 15:11:00,
2013-10-01 08:16:00,74.1,36.0,30.04,NNW,331,0.0,2.0,25,0.00,,,0.00,373.0,meteohub,2013-10-01 15:16:00,
2013-10-01 08:21:00,74.7,36.5,30.04,NNW,331,0.0,2.0,25,0.00,,,0.00,390.0,meteohub,2013-10-01 15:21:00,
2013-10-01 08:26:00,75.4,37.0,30.04,NNW,331,1.0,1.0,25,0.00,,,0.00,408.0,meteohub,2013-10-01 15:26:00,
2013-10-01 08:31:00,76.3,36.9,30.04,NNW,331,0.0,1.0,24,0.00,,,0.00,425.0,meteohub,2013-10-01 15:31:00,
2013-10-01 08:36:00,76.8,37.2,30.04,NNW,331,2.0,2.0,24,0.00,,,0.00,443.0,meteohub,2013-10-01 15:36:00,
2013-10-01 08:41:00,76.6,37.2,30.05,West,275,1.0,2.0,24,0.00,,,0.00,461.0,meteohub,2013-10-01 15:41:00,
2013-10-01 08:46:00,76.3,36.9,30.05,SW,226,0.0,2.0,24,0.00,,,0.00,476.0,meteohub,2013-10-01 15:46:00,
2013-10-01 08:51:00,76.3,35.8,30.05,SW,219,2.0,4.0,23,0.00,,,0.00,494.0,meteohub,2013-10-01 15:51:00,
2013-10-01 08:56:00,76.1,35.6,30.05,SW,229,2.0,4.0,23,0.00,,,0.00,508.0,meteohub,2013-10-01 15:56:00,
2013-10-01 09:01:00,76.3,33.4,30.05,SW,221,1.0,4.0,21,0.00,,,0.00,526.0,meteohub,2013-10-01 16:01:00,
2013-10-01 09:06:00,76.6,34.9,30.05,West,265,1.0,4.0,22,0.00,,,0.00,540.0,meteohub,2013-10-01 16:06:00,
2013-10-01 09:12:00,77.2,35.4,30.05,WSW,240,2.0,4.0,22,0.00,,,0.00,557.0,meteohub,2013-10-01 16:12:00,
2013-10-01 09:17:00,77.4,36.7,30.05,WSW,258,3.0,5.0,23,0.00,,,0.00,573.0,meteohub,2013-10-01 16:17:00,
2013-10-01 09:22:00,77.5,36.9,30.05,SW,227,2.0,5.0,23,0.00,,,0.00,587.0,meteohub,2013-10-01 16:22:00,
2013-10-01 09:27:00,77.7,34.7,30.06,SW,215,4.0,5.0,21,0.00,,,0.00,599.0,meteohub,2013-10-01 16:27:00,
2013-10-01 09:31:00,78.1,34.9,30.06,West,271,4.0,5.0,21,0.00,,,0.00,612.0,meteohub,2013-10-01 16:31:00,
2013-10-01 09:36:00,78.6,34.2,30.06,West,274,3.0,5.0,20,0.00,,,0.00,624.0,meteohub,2013-10-01 16:36:00,
2013-10-01 09:41:00,78.6,32.9,30.06,WSW,238,2.0,5.0,19,0.00,,,0.00,640.0,meteohub,2013-10-01 16:41:00,
2013-10-01 09:46:00,79.0,33.3,30.05,West,265,2.0,6.0,19,0.00,,,0.00,652.0,meteohub,2013-10-01 16:46:00,
2013-10-01 09:51:00,79.3,32.2,30.06,NW,306,1.0,6.0,18,0.00,,,0.00,666.0,meteohub,2013-10-01 16:51:00,
2013-10-01 09:56:00,79.5,32.4,30.05,West,267,0.0,6.0,18,0.00,,,0.00,680.0,meteohub,2013-10-01 16:56:00,
2013-10-01 10:01:00,79.9,32.5,30.05,SW,215,1.0,5.0,18,0.00,,,0.00,691.0,meteohub,2013-10-01 17:01:00,
2013-10-01 10:06:00,80.4,30.2,30.05,West,260,1.0,5.0,16,0.00,,,0.00,703.0,meteohub,2013-10-01 17:06:00,
2013-10-01 10:11:00,80.4,31.6,30.05,West,261,1.0,4.0,17,0.00,,,0.00,712.0,meteohub,2013-10-01 17:11:00,
2013-10-01 10:16:00,81.0,33.4,30.05,SW,219,3.0,4.0,18,0.00,,,0.00,726.0,meteohub,2013-10-01 17:16:00,
2013-10-01 10:21:00,81.1,32.2,30.05,South,171,2.0,5.0,17,0.00,,,0.00,735.0,meteohub,2013-10-01 17:21:00,
2013-10-01 10:26:00,81.9,32.7,30.05,SW,231,2.0,5.0,17,0.00,,,0.00,742.0,meteohub,2013-10-01 17:26:00,
2013-10-01 10:31:00,82.2,31.6,30.05,West,266,2.0,5.0,16,0.00,,,0.00,754.0,meteohub,2013-10-01 17:31:00,
2013-10-01 10:36:00,82.8,32.0,30.05,WSW,238,1.0,4.0,16,0.00,,,0.00,765.0,meteohub,2013-10-01 17:36:00,
2013-10-01 10:41:00,82.9,32.2,30.05,SW,214,3.0,4.0,16,0.00,,,0.00,773.0,meteohub,2013-10-01 17:41:00,
2013-10-01 10:46:00,82.9,33.6,30.05,SSW,194,3.0,4.0,17,0.00,,,0.00,782.0,meteohub,2013-10-01 17:46:00,
2013-10-01 10:51:00,83.7,32.7,30.04,SW,222,4.0,4.0,16,0.00,,,0.00,791.0,meteohub,2013-10-01 17:51:00,
2013-10-01 10:56:00,83.8,32.9,30.04,SW,225,2.0,5.0,16,0.00,,,0.00,796.0,meteohub,2013-10-01 17:56:00,
2013-10-01 11:01:00,84.0,33.1,30.04,West,276,2.0,5.0,16,0.00,,,0.00,803.0,meteohub,2013-10-01 18:01:00,
2013-10-01 11:06:00,84.6,31.8,30.04,SW,219,1.0,6.0,15,0.00,,,0.00,810.0,meteohub,2013-10-01 18:06:00,
2013-10-01 11:11:00,84.9,32.2,30.04,West,267,4.0,6.0,15,0.00,,,0.00,816.0,meteohub,2013-10-01 18:11:00,
2013-10-01 11:17:00,84.9,30.4,30.04,NW,310,2.0,6.0,14,0.00,,,0.00,821.0,meteohub,2013-10-01 18:17:00,
2013-10-01 11:22:00,85.1,32.2,30.04,South,189,1.0,4.0,15,0.00,,,0.00,830.0,meteohub,2013-10-01 18:22:00,
2013-10-01 11:27:00,85.5,30.9,30.04,SSE,165,1.0,4.0,14,0.00,,,0.00,833.0,meteohub,2013-10-01 18:27:00,
2013-10-01 11:32:00,85.8,31.1,30.04,SW,221,2.0,5.0,14,0.00,,,0.00,840.0,meteohub,2013-10-01 18:32:00,
2013-10-01 11:37:00,86.4,31.5,30.03,WNW,303,3.0,6.0,14,0.00,,,0.00,842.0,meteohub,2013-10-01 18:37:00,
2013-10-01 11:42:00,86.5,29.8,30.03,WSW,238,1.0,6.0,13,0.00,,,0.00,844.0,meteohub,2013-10-01 18:42:00,
2013-10-01 11:47:00,87.1,32.2,30.03,SW,222,4.0,6.0,14,0.00,,,0.00,849.0,meteohub,2013-10-01 18:47:00,
2013-10-01 11:52:00,87.1,30.2,30.03,SSW,195,1.0,5.0,13,0.00,,,0.00,853.0,meteohub,2013-10-01 18:52:00,
2013-10-01 11:57:00,87.3,30.4,30.03,SW,223,0.0,6.0,13,0.00,,,0.00,854.0,meteohub,2013-10-01 18:57:00,
2013-10-01 12:02:00,87.6,30.7,30.02,SW,221,2.0,7.0,13,0.00,,,0.00,856.0,meteohub,2013-10-01 19:02:00,
2013-10-01 12:07:00,88.0,30.9,30.02,NW,317,6.0,7.0,13,0.00,,,0.00,858.0,meteohub,2013-10-01 19:07:00,
2013-10-01 12:12:00,87.8,32.7,30.02,WSW,254,1.0,7.0,14,0.00,,,0.00,856.0,meteohub,2013-10-01 19:12:00,
2013-10-01 12:17:00,88.3,33.1,30.02,SW,219,1.0,7.0,14,0.00,,,0.00,854.0,meteohub,2013-10-01 19:17:00,
2013-10-01 12:22:00,88.3,34.9,30.02,West,275,3.0,7.0,15,0.00,,,0.00,854.0,meteohub,2013-10-01 19:22:00,
2013-10-01 12:27:00,88.2,34.7,30.02,SW,227,2.0,11.0,15,0.00,,,0.00,853.0,meteohub,2013-10-01 19:27:00,
2013-10-01 12:32:00,88.5,35.1,30.01,WNW,288,3.0,11.0,15,0.00,,,0.00,854.0,meteohub,2013-10-01 19:32:00,
2013-10-01 12:37:00,88.9,33.6,30.01,NW,318,3.0,9.0,14,0.00,,,0.00,851.0,meteohub,2013-10-01 19:37:00,
2013-10-01 12:42:00,89.1,35.4,30.01,SW,222,6.0,10.0,15,0.00,,,0.00,853.0,meteohub,2013-10-01 19:42:00,
2013-10-01 12:47:00,88.9,33.6,30.01,West,267,2.0,10.0,14,0.00,,,0.00,849.0,meteohub,2013-10-01 19:47:00,
2013-10-01 12:52:00,88.9,33.6,30.00,SW,225,4.0,8.0,14,0.00,,,0.00,847.0,meteohub,2013-10-01 19:52:00,
2013-10-01 12:57:00,89.1,33.6,30.00,WNW,284,6.0,8.0,14,0.00,,,0.00,844.0,meteohub,2013-10-01 19:57:00,
2013-10-01 13:02:00,89.4,32.2,30.00,South,191,5.0,8.0,13,0.00,,,0.00,840.0,meteohub,2013-10-01 20:02:00,
2013-10-01 13:08:00,89.2,32.0,29.99,SW,229,3.0,9.0,13,0.00,,,0.00,837.0,meteohub,2013-10-01 20:08:00,
2013-10-01 13:13:00,89.2,32.0,29.99,South,184,6.0,9.0,13,0.00,,,0.00,831.0,meteohub,2013-10-01 20:13:00,
2013-10-01 13:18:00,89.2,32.0,29.99,WSW,254,2.0,9.0,13,0.00,,,0.00,826.0,meteohub,2013-10-01 20:18:00,
2013-10-01 13:23:00,89.8,32.4,29.99,SW,223,5.0,10.0,13,0.00,,,0.00,821.0,meteohub,2013-10-01 20:23:00,
2013-10-01 13:28:00,90.0,32.5,29.99,WSW,241,4.0,10.0,13,0.00,,,0.00,814.0,meteohub,2013-10-01 20:28:00,
2013-10-01 13:33:00,89.8,32.4,29.99,SSW,207,1.0,10.0,13,0.00,,,0.00,805.0,meteohub,2013-10-01 20:33:00,
2013-10-01 13:38:00,89.8,32.4,29.98,WSW,251,6.0,10.0,13,0.00,,,0.00,802.0,meteohub,2013-10-01 20:38:00,
2013-10-01 13:43:00,89.6,32.2,29.98,West,265,6.0,8.0,13,0.00,,,0.00,682.0,meteohub,2013-10-01 20:43:00,
2013-10-01 13:48:00,89.2,32.0,29.98,WNW,284,4.0,8.0,13,0.00,,,0.00,610.0,meteohub,2013-10-01 20:48:00,
2013-10-01 13:53:00,89.2,32.0,29.98,West,265,1.0,8.0,13,0.00,,,0.00,719.0,meteohub,2013-10-01 20:53:00,
2013-10-01 13:58:00,89.4,32.2,29.97,WSW,248,3.0,8.0,13,0.00,,,0.00,707.0,meteohub,2013-10-01 20:58:00,
2013-10-01 14:03:00,89.8,32.4,29.97,South,171,1.0,9.0,13,0.00,,,0.00,673.0,meteohub,2013-10-01 21:03:00,
2013-10-01 14:08:00,90.1,32.7,29.97,WSW,257,3.0,9.0,13,0.00,,,0.00,722.0,meteohub,2013-10-01 21:08:00,
2013-10-01 14:13:00,90.1,30.7,29.97,South,185,3.0,9.0,12,0.00,,,0.00,721.0,meteohub,2013-10-01 21:13:00,
2013-10-01 14:18:00,90.7,31.1,29.97,WSW,239,5.0,7.0,12,0.00,,,0.00,717.0,meteohub,2013-10-01 21:18:00,
2013-10-01 14:23:00,90.7,31.1,29.97,SW,215,6.0,7.0,12,0.00,,,0.00,712.0,meteohub,2013-10-01 21:23:00,
2013-10-01 14:29:00,90.9,31.3,29.97,West,265,6.0,8.0,12,0.00,,,0.00,703.0,meteohub,2013-10-01 21:29:00,
2013-10-01 14:34:00,90.7,31.1,29.96,WNW,297,4.0,8.0,12,0.00,,,0.00,691.0,meteohub,2013-10-01 21:34:00,
2013-10-01 14:39:00,90.3,30.7,29.96,West,263,2.0,8.0,12,0.00,,,0.00,682.0,meteohub,2013-10-01 21:39:00,
2013-10-01 14:44:00,90.3,30.7,29.96,West,267,3.0,10.0,12,0.00,,,0.00,670.0,meteohub,2013-10-01 21:44:00,
2013-10-01 14:50:00,90.9,31.3,29.96,SW,235,4.0,10.0,12,0.00,,,0.00,649.0,meteohub,2013-10-01 21:50:00,
2013-10-01 14:55:00,90.7,31.1,29.96,SSW,212,3.0,8.0,12,0.00,,,0.00,636.0,meteohub,2013-10-01 21:55:00,
2013-10-01 15:00:00,91.0,31.5,29.96,West,261,3.0,8.0,12,0.00,,,0.00,622.0,meteohub,2013-10-01 22:00:00,
2013-10-01 15:05:00,91.0,31.5,29.95,WSW,243,4.0,7.0,12,0.00,,,0.00,610.0,meteohub,2013-10-01 22:05:00,
2013-10-01 15:10:00,91.0,31.5,29.95,WSW,244,6.0,7.0,12,0.00,,,0.00,596.0,meteohub,2013-10-01 22:10:00,
2013-10-01 15:15:00,91.2,31.5,29.95,SSW,213,4.0,9.0,12,0.00,,,0.00,582.0,meteohub,2013-10-01 22:15:00,
2013-10-01 15:20:00,91.2,31.5,29.95,SW,219,5.0,9.0,12,0.00,,,0.00,568.0,meteohub,2013-10-01 22:20:00,
2013-10-01 15:25:00,90.9,31.3,29.95,WSW,248,6.0,8.0,12,0.00,,,0.00,552.0,meteohub,2013-10-01 22:25:00,
2013-10-01 15:30:00,91.2,31.5,29.95,SW,223,3.0,8.0,12,0.00,,,0.00,536.0,meteohub,2013-10-01 22:30:00,
2013-10-01 15:35:00,91.8,29.8,29.95,SW,217,5.0,8.0,11,0.00,,,0.00,520.0,meteohub,2013-10-01 22:35:00,
2013-10-01 15:40:00,91.6,31.8,29.94,SSW,205,3.0,7.0,12,0.00,,,0.00,506.0,meteohub,2013-10-01 22:40:00,
2013-10-01 15:45:00,91.6,31.8,29.94,South,191,4.0,7.0,12,0.00,,,0.00,489.0,meteohub,2013-10-01 22:45:00,
2013-10-01 15:50:00,91.6,29.7,29.94,SSE,163,1.0,7.0,11,0.00,,,0.00,471.0,meteohub,2013-10-01 22:50:00,
2013-10-01 15:55:00,91.6,31.8,29.94,SSW,209,3.0,7.0,12,0.00,,,0.00,450.0,meteohub,2013-10-01 22:55:00,
2013-10-01 16:00:00,91.6,31.8,29.94,SW,232,3.0,7.0,12,0.00,,,0.00,434.0,meteohub,2013-10-01 23:00:00,
2013-10-01 16:06:00,91.2,31.5,29.94,South,175,4.0,7.0,12,0.00,,,0.00,418.0,meteohub,2013-10-01 23:06:00,
2013-10-01 16:11:00,91.2,31.5,29.94,West,277,1.0,7.0,12,0.00,,,0.00,401.0,meteohub,2013-10-01 23:11:00,
2013-10-01 16:16:00,91.6,29.7,29.94,SW,219,1.0,7.0,11,0.00,,,0.00,383.0,meteohub,2013-10-01 23:16:00,
2013-10-01 16:21:00,91.9,30.0,29.94,SW,235,0.0,6.0,11,0.00,,,0.00,364.0,meteohub,2013-10-01 23:21:00,
2013-10-01 16:26:00,92.1,30.0,29.94,WSW,247,3.0,5.0,11,0.00,,,0.00,348.0,meteohub,2013-10-01 23:26:00,
2013-10-01 16:30:00,91.6,29.7,29.94,SSW,203,2.0,5.0,11,0.00,,,0.00,332.0,meteohub,2013-10-01 23:30:00,
2013-10-01 16:35:00,91.2,31.5,29.94,SW,225,2.0,7.0,12,0.00,,,0.00,315.0,meteohub,2013-10-01 23:35:00,
2013-10-01 16:40:00,91.0,31.5,29.94,SW,232,1.0,7.0,12,0.00,,,0.00,295.0,meteohub,2013-10-01 23:40:00,
2013-10-01 16:45:00,90.9,31.3,29.94,SW,236,5.0,8.0,12,0.00,,,0.00,276.0,meteohub,2013-10-01 23:45:00,
2013-10-01 16:50:00,90.3,30.7,29.94,SSW,198,2.0,8.0,12,0.00,,,0.00,255.0,meteohub,2013-10-01 23:50:00,
2013-10-01 16:55:00,90.3,30.7,29.94,SW,228,6.0,8.0,12,0.00,,,0.00,230.0,meteohub,2013-10-01 23:55:00,
2013-10-01 17:00:00,90.1,30.7,29.94,SSW,204,2.0,7.0,12,0.00,,,0.00,206.0,meteohub,2013-10-02 00:00:00,
2013-10-01 17:05:00,90.1,30.7,29.94,WSW,238,2.0,7.0,12,0.00,,,0.00,181.0,meteohub,2013-10-02 00:05:00,
2013-10-01 17:10:00,90.1,30.7,29.94,South,180,1.0,7.0,12,0.00,,,0.00,158.0,meteohub,2013-10-02 00:10:00,
2013-10-01 17:15:00,90.1,30.7,29.93,SW,222,3.0,4.0,12,0.00,,,0.00,135.0,meteohub,2013-10-02 00:15:00,
2013-10-01 17:17:00,90.1,30.7,29.94,SSW,211,3.0,4.0,12,0.00,,,0.00,128.0,meteohub,2013-10-02 00:17:00,
2013-10-01 17:22:00,89.8,30.4,29.94,West,275,2.0,6.0,12,0.00,,,0.00,105.0,meteohub,2013-10-02 00:22:00,
2013-10-01 17:27:00,89.4,30.2,29.94,West,259,7.0,7.0,12,0.00,,,0.00,86.0,meteohub,2013-10-02 00:27:00,
2013-10-01 17:32:00,89.1,31.8,29.93,West,273,1.0,7.0,13,0.00,,,0.00,69.0,meteohub,2013-10-02 00:32:00,
2013-10-01 17:37:00,88.9,31.6,29.93,WNW,290,2.0,7.0,13,0.00,,,0.00,53.0,meteohub,2013-10-02 00:37:00,
2013-10-01 17:42:00,88.5,33.3,29.93,WNW,286,0.0,7.0,14,0.00,,,0.00,39.0,meteohub,2013-10-02 00:42:00,
2013-10-01 17:47:00,88.3,33.1,29.93,West,265,0.0,6.0,14,0.00,,,0.00,26.0,meteohub,2013-10-02 00:47:00,
2013-10-01 17:52:00,88.0,32.9,29.93,West,265,1.0,4.0,14,0.00,,,0.00,16.0,meteohub,2013-10-02 00:52:00,
2013-10-01 17:57:00,87.4,34.2,29.94,West,269,2.0,4.0,15,0.00,,,0.00,12.0,meteohub,2013-10-02 00:57:00,
2013-10-01 18:02:00,86.7,33.6,29.94,West,263,1.0,4.0,15,0.00,,,0.00,9.0,meteohub,2013-10-02 01:02:00,
2013-10-01 18:07:00,86.0,32.9,29.94,West,263,0.0,4.0,15,0.00,,,0.00,5.0,meteohub,2013-10-02 01:07:00,
2013-10-01 18:12:00,85.3,34.0,29.94,West,263,1.0,3.0,16,0.00,,,0.00,0.0,meteohub,2013-10-02 01:12:00,
2013-10-01 18:17:00,84.6,33.4,29.94,West,263,1.0,3.0,16,0.00,,,0.00,0.0,meteohub,2013-10-02 01:17:00,
2013-10-01 18:22:00,83.8,32.9,29.94,West,263,1.0,2.0,16,0.00,,,0.00,0.0,meteohub,2013-10-02 01:22:00,
2013-10-01 18:27:00,83.5,34.2,29.94,West,263,0.0,2.0,17,0.00,,,0.00,0.0,meteohub,2013-10-02 01:27:00,
2013-10-01 18:32:00,82.8,33.4,29.94,West,263,0.0,2.0,17,0.00,,,0.00,0.0,meteohub,2013-10-02 01:32:00,
2013-10-01 18:37:00,82.2,34.5,29.94,West,263,0.0,1.0,18,0.00,,,0.00,0.0,meteohub,2013-10-02 01:37:00,
2013-10-01 18:42:00,81.7,34.0,29.94,West,263,0.0,1.0,18,0.00,,,0.00,0.0,meteohub,2013-10-02 01:42:00,
2013-10-01 18:47:00,81.0,34.9,29.94,West,263,0.0,1.0,19,0.00,,,0.00,0.0,meteohub,2013-10-02 01:47:00,
2013-10-01 18:52:00,80.1,34.2,29.94,West,263,0.0,0.0,19,0.00,,,0.00,0.0,meteohub,2013-10-02 01:52:00,
2013-10-01 18:57:00,79.2,34.7,29.94,West,263,0.0,1.0,20,0.00,,,0.00,0.0,meteohub,2013-10-02 01:57:00,
2013-10-01 19:02:00,78.3,34.0,29.94,West,263,0.0,1.0,20,0.00,,,0.00,0.0,meteohub,2013-10-02 02:02:00,
2013-10-01 19:07:00,77.7,34.7,29.94,West,263,1.0,1.0,21,0.00,,,0.00,0.0,meteohub,2013-10-02 02:07:00,
2013-10-01 19:12:00,77.0,34.2,29.94,West,263,0.0,2.0,21,0.00,,,0.00,0.0,meteohub,2013-10-02 02:12:00,
2013-10-01 19:17:00,76.5,33.6,29.94,West,263,0.0,2.0,21,0.00,,,0.00,0.0,meteohub,2013-10-02 02:17:00,
2013-10-01 19:22:00,75.9,34.3,29.94,West,263,0.0,2.0,22,0.00,,,0.00,0.0,meteohub,2013-10-02 02:22:00,
2013-10-01 19:27:00,75.7,33.1,29.95,West,263,1.0,2.0,21,0.00,,,0.00,0.0,meteohub,2013-10-02 02:27:00,
2013-10-01 19:32:00,76.5,33.6,29.95,West,263,2.0,2.0,21,0.00,,,0.00,0.0,meteohub,2013-10-02 02:32:00,
2013-10-01 19:37:00,77.0,34.2,29.95,West,263,1.0,2.0,21,0.00,,,0.00,0.0,meteohub,2013-10-02 02:37:00,
2013-10-01 19:42:00,77.2,34.2,29.95,West,263,0.0,2.0,21,0.00,,,0.00,0.0,meteohub,2013-10-02 02:42:00,
2013-10-01 19:47:00,76.6,34.9,29.96,West,263,0.0,2.0,22,0.00,,,0.00,0.0,meteohub,2013-10-02 02:47:00,
2013-10-01 19:52:00,76.3,34.7,29.96,West,263,0.0,2.0,22,0.00,,,0.00,0.0,meteohub,2013-10-02 02:52:00,
2013-10-01 19:57:00,75.6,35.2,29.96,West,263,1.0,2.0,23,0.00,,,0.00,0.0,meteohub,2013-10-02 02:57:00,
2013-10-01 20:02:00,74.8,34.5,29.96,West,263,0.0,1.0,23,0.00,,,0.00,0.0,meteohub,2013-10-02 03:02:00,
2013-10-01 20:07:00,74.1,35.1,29.96,West,263,0.0,1.0,24,0.00,,,0.00,0.0,meteohub,2013-10-02 03:07:00,
2013-10-01 20:12:00,73.6,34.5,29.96,West,263,1.0,1.0,24,0.00,,,0.00,0.0,meteohub,2013-10-02 03:12:00,
2013-10-01 20:17:00,73.0,35.1,29.96,West,263,0.0,1.0,25,0.00,,,0.00,0.0,meteohub,2013-10-02 03:17:00,
2013-10-01 20:22:00,72.7,34.9,29.96,West,263,0.0,1.0,25,0.00,,,0.00,0.0,meteohub,2013-10-02 03:22:00,
2013-10-01 20:27:00,72.0,35.2,29.97,West,263,2.0,2.0,26,0.00,,,0.00,0.0,meteohub,2013-10-02 03:27:00,
2013-10-01 20:32:00,71.8,35.1,29.97,West,263,1.0,2.0,26,0.00,,,0.00,0.0,meteohub,2013-10-02 03:32:00,
2013-10-01 20:38:00,71.4,34.7,29.97,West,263,1.0,3.0,26,0.00,,,0.00,0.0,meteohub,2013-10-02 03:38:00,
2013-10-01 20:43:00,71.2,34.5,29.97,West,263,1.0,3.0,26,0.00,,,0.00,0.0,meteohub,2013-10-02 03:43:00,
2013-10-01 20:48:00,70.9,35.2,29.97,West,263,0.0,2.0,27,0.00,,,0.00,0.0,meteohub,2013-10-02 03:48:00,
2013-10-01 20:53:00,70.5,34.9,29.97,West,263,1.0,2.0,27,0.00,,,0.00,0.0,meteohub,2013-10-02 03:53:00,
2013-10-01 20:58:00,70.3,34.7,29.98,West,263,0.0,2.0,27,0.00,,,0.00,0.0,meteohub,2013-10-02 03:58:00,
2013-10-01 21:01:00,70.3,34.7,29.98,West,263,0.0,1.0,27,0.00,,,0.00,0.0,meteohub,2013-10-02 04:01:00,
2013-10-01 21:02:00,70.2,34.7,29.98,West,263,1.0,1.0,27,0.00,,,0.00,0.0,meteohub,2013-10-02 04:02:00,
2013-10-01 21:07:00,69.6,34.2,29.98,West,263,0.0,2.0,27,0.00,,,0.00,0.0,meteohub,2013-10-02 04:07:00,
2013-10-01 21:12:00,69.3,34.7,29.98,West,263,0.0,2.0,28,0.00,,,0.00,0.0,meteohub,2013-10-02 04:12:00,
2013-10-01 21:17:00,69.1,34.5,29.98,West,263,0.0,2.0,28,0.00,,,0.00,0.0,meteohub,2013-10-02 04:17:00,
2013-10-01 21:22:00,69.1,34.5,29.98,West,263,0.0,2.0,28,0.00,,,0.00,0.0,meteohub,2013-10-02 04:22:00,
2013-10-01 21:27:00,68.7,35.2,29.98,West,263,0.0,0.0,29,0.00,,,0.00,0.0,meteohub,2013-10-02 04:27:00,
2013-10-01 21:32:00,68.4,34.9,29.99,West,263,0.0,0.0,29,0.00,,,0.00,0.0,meteohub,2013-10-02 04:32:00,
2013-10-01 21:37:00,67.8,34.3,29.99,West,263,0.0,2.0,29,0.00,,,0.00,0.0,meteohub,2013-10-02 04:37:00,
2013-10-01 21:42:00,67.5,34.2,29.99,West,263,1.0,2.0,29,0.00,,,0.00,0.0,meteohub,2013-10-02 04:42:00,
2013-10-01 21:47:00,66.9,34.5,29.99,West,263,0.0,2.0,30,0.00,,,0.00,0.0,meteohub,2013-10-02 04:47:00,
2013-10-01 21:52:00,66.7,34.3,29.99,West,263,0.0,2.0,30,0.00,,,0.00,0.0,meteohub,2013-10-02 04:52:00,
2013-10-01 21:57:00,66.6,35.1,29.99,West,263,0.0,2.0,31,0.00,,,0.00,0.0,meteohub,2013-10-02 04:57:00,
2013-10-01 22:02:00,66.2,34.7,29.99,West,263,0.0,1.0,31,0.00,,,0.00,0.0,meteohub,2013-10-02 05:02:00,
2013-10-01 22:07:00,66.0,35.2,29.99,West,263,1.0,1.0,32,0.00,,,0.00,0.0,meteohub,2013-10-02 05:07:00,
2013-10-01 22:12:00,66.0,35.2,29.99,West,263,0.0,1.0,32,0.00,,,0.00,0.0,meteohub,2013-10-02 05:12:00,
2013-10-01 22:17:00,66.6,35.1,29.99,West,263,1.0,1.0,31,0.00,,,0.00,0.0,meteohub,2013-10-02 05:17:00,
2013-10-01 22:22:00,66.9,35.2,29.99,West,263,1.0,2.0,31,0.00,,,0.00,0.0,meteohub,2013-10-02 05:22:00,
2013-10-01 22:27:00,66.9,35.2,29.99,West,263,1.0,2.0,31,0.00,,,0.00,0.0,meteohub,2013-10-02 05:27:00,
2013-10-01 22:32:00,66.6,35.1,29.99,West,263,0.0,2.0,31,0.00,,,0.00,0.0,meteohub,2013-10-02 05:32:00,
2013-10-01 22:37:00,66.4,34.9,29.99,West,263,1.0,1.0,31,0.00,,,0.00,0.0,meteohub,2013-10-02 05:37:00,
2013-10-01 22:42:00,65.8,35.2,29.99,West,263,0.0,1.0,32,0.00,,,0.00,0.0,meteohub,2013-10-02 05:42:00,
2013-10-01 22:47:00,65.5,35.6,29.99,West,263,0.0,1.0,33,0.00,,,0.00,0.0,meteohub,2013-10-02 05:47:00,
2013-10-01 22:52:00,65.1,35.2,29.99,West,263,0.0,1.0,33,0.00,,,0.00,0.0,meteohub,2013-10-02 05:52:00,
2013-10-01 22:57:00,64.9,35.1,29.99,West,263,0.0,1.0,33,0.00,,,0.00,0.0,meteohub,2013-10-02 05:57:00,
2013-10-01 23:02:00,64.9,35.1,29.99,West,263,0.0,1.0,33,0.00,,,0.00,0.0,meteohub,2013-10-02 06:02:00,
2013-10-01 23:07:00,64.9,36.0,29.99,West,263,1.0,1.0,34,0.00,,,0.00,0.0,meteohub,2013-10-02 06:07:00,
2013-10-01 23:12:00,65.3,35.4,30.00,West,263,0.0,2.0,33,0.00,,,0.00,0.0,meteohub,2013-10-02 06:12:00,
2013-10-01 23:17:00,65.7,35.8,30.00,West,263,0.0,2.0,33,0.00,,,0.00,0.0,meteohub,2013-10-02 06:17:00,
2013-10-01 23:22:00,65.8,36.0,30.00,West,263,0.0,2.0,33,0.00,,,0.00,0.0,meteohub,2013-10-02 06:22:00,
2013-10-01 23:27:00,65.8,36.0,30.00,West,263,0.0,2.0,33,0.00,,,0.00,0.0,meteohub,2013-10-02 06:27:00,
2013-10-01 23:32:00,65.5,36.3,29.99,West,263,0.0,2.0,34,0.00,,,0.00,0.0,meteohub,2013-10-02 06:32:00,
2013-10-01 23:37:00,65.1,36.1,30.00,West,263,0.0,1.0,34,0.00,,,0.00,0.0,meteohub,2013-10-02 06:37:00,
2013-10-01 23:42:00,64.8,36.5,29.99,West,263,0.0,1.0,35,0.00,,,0.00,0.0,meteohub,2013-10-02 06:42:00,
2013-10-01 23:47:00,64.4,36.9,29.99,West,263,0.0,1.0,36,0.00,,,0.00,0.0,meteohub,2013-10-02 06:47:00,
2013-10-01 23:52:00,64.0,36.5,29.99,West,263,0.0,1.0,36,0.00,,,0.00,0.0,meteohub,2013-10-02 06:52:00,
2013-10-01 23:57:00,63.9,37.0,29.99,West,263,0.0,1.0,37,0.00,,,0.00,0.0,meteohub,2013-10-02 06:57:00,